Location: Asheville, NC
(35.6000°N, 82.5500°W)
Time: 11:54:13

RS-15 - Pass Details

Date: 14 March 2018
Orbit: 1888 x 2157 km, 64.8° (Epoch: 23 March)

Event Time Altitude Azimuth Distance (km) Brightness Sun altitude
Exits shadow 04:10:03 15° 313° (NW) 4,246 9.6 -42.0°
Maximum altitude 04:14:26 18° 338° (NNW) 3,995 9.7 -41.2°
Drops below altitude 10° 04:21:44 10° 17° (NNE) 4,536 10.4 -40.0°
Sets 04:27:04 0° 36° (NE) 5,486 11.2 -39.0°
